Weather History for Eureka Airport, NV

Change the Weather History Date:

Thursday, October 4, 2012

  Actual Average Record
Temperature  
Mean Temperature 56 °F -  
Max Temperature 77 °F - - ()
Min Temperature 35 °F - - ()
Degree Days  
Heating Degree Days 9    
Growing Degree Days 6 (Base 50)    
Moisture  
Dew Point -    
Average Humidity    
Maximum Humidity    
Minimum Humidity    
Precipitation  
Precipitation 0.00 in - - ()
Sea Level Pressure  
Sea Level Pressure 30.21 in    
Wind  
Wind Speed 8 mph ()    
Max Wind Speed 24 mph    
Max Gust Speed 36 mph    
Visibility 10.0 miles    
Events      
T = Trace of Precipitation, MM = Missing Value Source: Averaged Metar Reports

Daily Weather History Graph

Daily Weather History Graph

Search for Another Location

Airport:

Trip Planner

Search our weather history database for the weather conditions in past years. The results will help you decide how hot, cold, wet, or windy it might be!

Date:

Astronomy

Oct. 04, 2012 Rise Set
Actual Time 6:43 AM PDT 6:20 PM PDT
Civil Twilight 6:16 AM PDT 6:47 PM PDT
Nautical Twilight 5:45 AM PDT 7:18 PM PDT
Astronomical Twilight 5:14 AM PDT 7:50 PM PDT
Moon 9:00 PM PDT (10/4) 11:03 AM PDT (10/4)
Length of Visible Light 12h 30m
Length of Day
11h 37m
Waning Gibbous, 81% of the Moon is Illuminated
Oct 4
Waning Gibbous
Oct 8
Last Quarter
Oct 15
New
Oct 21
First Quarter
Oct 29
Full

Hourly Weather History & Observations

Time (PDT) Temp. Windchill Dew Point Humidity Pressure Visibility Wind Dir Wind Speed Gust Speed Precip Events Conditions
12:15 AM 41.0 °F 37.1 °F - N/A% 30.23 in 10.0 mi SE 5.8 mph - N/A   Clear
12:35 AM 42.8 °F 39.3 °F - N/A% 30.23 in 10.0 mi SSE 5.8 mph - N/A   Clear
12:55 AM 44.6 °F 40.7 °F - N/A% 30.23 in 10.0 mi South 6.9 mph - N/A   Clear
1:15 AM 42.8 °F 39.3 °F - N/A% 30.23 in 10.0 mi South 5.8 mph - N/A   Clear
1:35 AM 42.8 °F 37.5 °F - N/A% 30.23 in 10.0 mi South 9.2 mph - N/A   Clear
1:55 AM 41.0 °F 37.1 °F - N/A% 30.23 in 10.0 mi South 5.8 mph - N/A   Clear
2:15 AM 41.0 °F 36.4 °F - N/A% 30.23 in 10.0 mi South 6.9 mph - N/A   Clear
2:35 AM 39.2 °F 35.9 °F - N/A% 30.23 in 10.0 mi South 4.6 mph - N/A   Clear
2:55 AM 41.0 °F 36.4 °F - N/A% 30.23 in 10.0 mi South 6.9 mph - N/A   Clear
3:15 AM 41.0 °F 35.8 °F - N/A% 30.22 in 10.0 mi South 8.1 mph - N/A   Clear
3:35 AM 41.0 °F 37.1 °F - N/A% 30.22 in 10.0 mi South 5.8 mph - N/A   Clear
3:55 AM 39.2 °F 34.2 °F - N/A% 30.22 in 10.0 mi South 6.9 mph - N/A   Clear
4:15 AM 39.2 °F 35.9 °F - N/A% 30.22 in 10.0 mi South 4.6 mph - N/A   Clear
4:35 AM 39.2 °F 34.2 °F - N/A% 30.23 in 10.0 mi South 6.9 mph - N/A   Clear
4:55 AM 39.2 °F 34.2 °F - N/A% 30.23 in 10.0 mi SSW 6.9 mph - N/A   Clear
5:15 AM 39.2 °F 34.2 °F - N/A% 30.23 in 10.0 mi SSW 6.9 mph - N/A   Clear
5:35 AM 37.4 °F 34.9 °F - N/A% 30.23 in 10.0 mi SW 3.5 mph - N/A   Clear
5:55 AM 37.4 °F 33.8 °F - N/A% 30.23 in 10.0 mi WSW 4.6 mph - N/A   Clear
6:15 AM 35.6 °F 30.7 °F - N/A% 30.24 in 10.0 mi WSW 5.8 mph - N/A   Clear
6:35 AM 35.6 °F 32.8 °F - N/A% 30.24 in 10.0 mi WSW 3.5 mph - N/A   Clear
6:55 AM 35.6 °F 31.7 °F - N/A% 30.24 in 10.0 mi WSW 4.6 mph - N/A   Clear
7:15 AM 35.6 °F 29.9 °F - N/A% 30.24 in 10.0 mi SSW 6.9 mph - N/A   Clear
7:35 AM 41.0 °F 35.8 °F - N/A% 30.23 in 10.0 mi SSW 8.1 mph - N/A   Clear
7:55 AM 46.4 °F 41.9 °F - N/A% 30.23 in 10.0 mi SSW 9.2 mph - N/A   Clear
8:15 AM 48.2 °F - - N/A% 30.24 in 10.0 mi SW 6.9 mph - N/A   Clear
8:35 AM 50.0 °F - - N/A% 30.24 in 10.0 mi WSW 8.1 mph - N/A   Clear
8:55 AM 55.4 °F - - N/A% 30.23 in 10.0 mi SW 9.2 mph - N/A   Clear
9:15 AM 57.2 °F - - N/A% 30.24 in 10.0 mi SW 9.2 mph - N/A   Clear
9:35 AM 59.0 °F - - N/A% 30.24 in 10.0 mi SSW 8.1 mph - N/A   Clear
9:55 AM 66.2 °F - - N/A% 30.24 in 10.0 mi WSW 9.2 mph - N/A   Clear
10:15 AM 68.0 °F - - N/A% 30.24 in 10.0 mi WSW 11.5 mph 16.1 mph N/A   Clear
10:35 AM 68.0 °F - - N/A% 30.24 in 10.0 mi WSW 12.7 mph 17.3 mph N/A   Clear
10:55 AM 69.8 °F - - N/A% 30.24 in 10.0 mi SW 11.5 mph - N/A   Clear
11:15 AM 69.8 °F - - N/A% 30.24 in 9.0 mi West 8.1 mph - N/A   Clear
11:35 AM 71.6 °F - - N/A% 30.23 in 10.0 mi SW 12.7 mph - N/A   Clear
11:55 AM 71.6 °F - - N/A% 30.23 in 10.0 mi WSW 6.9 mph - N/A   Clear
12:15 PM 73.4 °F - - N/A% 30.22 in 10.0 mi WSW 5.8 mph - N/A   Clear
12:35 PM 73.4 °F - - N/A% 30.21 in 10.0 mi WNW 8.1 mph 18.4 mph N/A   Clear
12:55 PM 75.2 °F - - N/A% 30.20 in 10.0 mi WNW 8.1 mph 19.6 mph N/A   Clear
1:15 PM 75.2 °F - - N/A% 30.20 in 10.0 mi WNW 11.5 mph 18.4 mph N/A   Clear
1:35 PM 75.2 °F - - N/A% 30.18 in 10.0 mi West 15.0 mph 20.7 mph N/A   Clear
1:55 PM 75.2 °F - - N/A% 30.18 in 10.0 mi WNW 16.1 mph 25.3 mph N/A   Clear
2:15 PM 77.0 °F - - N/A% 30.17 in 10.0 mi WNW 23.0 mph 32.2 mph N/A   Clear
2:35 PM 75.2 °F - - N/A% 30.18 in 10.0 mi WNW 16.1 mph 25.3 mph N/A   Clear
2:55 PM 75.2 °F - - N/A% 30.17 in 10.0 mi West 18.4 mph 26.5 mph N/A   Clear
3:15 PM 75.2 °F - - N/A% 30.17 in 10.0 mi WNW 15.0 mph 32.2 mph N/A   Clear
3:35 PM 75.2 °F - - N/A% 30.17 in 10.0 mi NW 24.2 mph 35.7 mph N/A   Clear
3:55 PM 75.2 °F - - N/A% 30.17 in 10.0 mi NW 20.7 mph 26.5 mph N/A   Clear
4:15 PM 75.2 °F - - N/A% 30.17 in 10.0 mi NW 20.7 mph 33.4 mph N/A   Clear
4:35 PM 73.4 °F - - N/A% 30.17 in 10.0 mi WNW 13.8 mph 29.9 mph N/A   Clear
4:55 PM 73.4 °F - - N/A% 30.17 in 10.0 mi WNW 16.1 mph 27.6 mph N/A   Clear
5:15 PM 71.6 °F - - N/A% 30.18 in 10.0 mi NW 18.4 mph 25.3 mph N/A   Clear
5:35 PM 69.8 °F - - N/A% 30.18 in 10.0 mi NW 18.4 mph 27.6 mph N/A   Clear
5:55 PM 68.0 °F - - N/A% 30.18 in 10.0 mi NW 15.0 mph 21.9 mph N/A   Clear
6:15 PM 66.2 °F - - N/A% 30.19 in 10.0 mi NW 11.5 mph 21.9 mph N/A   Clear
6:35 PM 64.4 °F - - N/A% 30.19 in 10.0 mi NW 8.1 mph 18.4 mph N/A   Clear
7:15 PM 62.6 °F - - N/A% 30.19 in 10.0 mi WNW 5.8 mph - N/A   Clear
7:35 PM 60.8 °F - - N/A% 30.19 in 10.0 mi WNW 5.8 mph - N/A   Clear
7:55 PM 59.0 °F - - N/A% 30.19 in 10.0 mi West 4.6 mph - N/A   Clear
8:15 PM 55.4 °F - - N/A% 30.19 in 10.0 mi SW 6.9 mph - N/A   Clear
8:35 PM 50.0 °F - - N/A% 30.18 in 10.0 mi WSW 6.9 mph - N/A   Clear
8:55 PM 50.0 °F - - N/A% 30.18 in 10.0 mi SW 5.8 mph - N/A   Clear
9:15 PM 50.0 °F - - N/A% 30.19 in 10.0 mi SSW 6.9 mph - N/A   Clear
9:35 PM 48.2 °F - - N/A% 30.19 in 10.0 mi SSW 8.1 mph - N/A   Scattered Clouds
9:55 PM 48.2 °F - - N/A% 30.19 in 10.0 mi North 8.1 mph - N/A   Partly Cloudy
10:15 PM 46.4 °F 41.9 °F - N/A% 30.20 in 10.0 mi ENE 9.2 mph - N/A   Clear
10:35 PM 48.2 °F - - N/A% 30.20 in 10.0 mi East 3.5 mph - N/A   Clear
10:55 PM 46.4 °F - - N/A% 30.21 in 10.0 mi Calm Calm - N/A   Clear
11:15 PM 46.4 °F 42.9 °F - N/A% 30.21 in 10.0 mi South 6.9 mph - N/A   Clear
11:35 PM 42.8 °F 39.3 °F - N/A% 30.21 in 10.0 mi SSW 5.8 mph - N/A   Clear
11:55 PM 41.0 °F 39.0 °F - N/A% 30.22 in 10.0 mi South 3.5 mph - N/A   Clear